Location: Helion Bumpstead
(52.0500°N, 0.4000°E)
Time: 07:39:36
(UTC+00:00)

Meteor 2-21 Rocket - Pass Details

Date: 15 November 2025
Orbit: 935 x 968 km, 82.6° (Epoch: 14 December)

Event Time Altitude Azimuth Distance (km) Brightness Sun altitude
Exits shadow 04:36:40 42° 218° (SW) 1,313 4.8 -24.7°
Maximum altitude 04:38:40 66° 284° (WNW) 1,025 4.3 -24.3°
Drops below altitude 10° 04:44:44 10° 7° (N) 2,663 6.8 -23.4°
Sets 04:47:15 0° 10° (N) 3,609 7.6 -23.0°
